Weather History for KAPY - August, 2014

Change the Weather History Date:

Saturday, August 30, 2014

  Actual Average (KLRD) Record (KLRD)
Temperature  
Mean Temperature 88 °F 87 °F  
Max Temperature 98 °F 98 °F 107 °F (1991)
Min Temperature 78 °F 76 °F 62 °F (1973)
Degree Days  
Heating Degree Days 0 0  
Month to date heating degree days 0  
Since 1 June heating degree days 0  
Since 1 July heating degree days 0  
Cooling Degree Days 23 22  
Month to date cooling degree days 707  
Year to date cooling degree days 3223  
Since 1 June cooling degree days 2080  
Growing Degree Days 38 (Base 50)    
Moisture  
Dew Point 71 °F    
Average Humidity 64    
Maximum Humidity 87    
Minimum Humidity 32    
Precipitation  
Precipitation 0.00 in 0.10 in 1.77 in (2001)
Month to date precipitation 1.78  
Year to date precipitation 12.89  
Sea Level Pressure  
Sea Level Pressure 29.87 in    
Wind  
Wind Speed 6 mph (East)    
Max Wind Speed 23 mph    
Max Gust Speed 29 mph    
Visibility 10 miles    
Events Thunderstorm    
T = Trace of Precipitation, MM = Missing Value Source: NWS Daily Summary

Daily Weather History Graph

Daily Weather History Graph

Search for Another Location

Airport or City:

Trip Planner

Search our weather history database for the weather conditions in past years. The results will help you decide how hot, cold, wet, or windy it might be!

Date:

Astronomy

Aug. 30, 2014 Rise Set
Actual Time 7:15 AM CDT 7:59 PM CDT
Civil Twilight 6:51 AM CDT 8:22 PM CDT
Nautical Twilight 6:23 AM CDT 8:50 PM CDT
Astronomical Twilight 5:55 AM CDT 9:19 PM CDT
Moon 11:35 AM CDT (8/30) 11:05 PM CDT (8/30)
Length of Visible Light 13h 31m
Length of Day
12h 43m
Waxing Crescent, 23% of the Moon is Illuminated
Aug 30
Waxing Crescent
Sep 2
First Quarter
Sep 8
Full
Sep 15
Last Quarter
Sep 24
New

Hourly Weather History & Observations

Time (CDT) Temp. Heat Index Dew Point Humidity Pressure Visibility Wind Dir Wind Speed Gust Speed Precip Events Conditions
12:15 AM 80.6 °F 84.4 °F 71.2 °F 73% 29.87 in 10.0 mi ESE 4.6 mph - N/A   Clear
12:35 AM 80.1 °F 83.6 °F 71.2 °F 74% 29.87 in 10.0 mi ESE 3.5 mph - N/A   Scattered Clouds
12:55 AM 79.7 °F - 70.5 °F 73% 29.88 in 10.0 mi ESE 9.2 mph - N/A   Mostly Cloudy
1:15 AM 79.2 °F - 69.8 °F 73% 29.87 in 10.0 mi ESE 8.1 mph - N/A   Overcast
1:35 AM 79.3 °F - 69.6 °F 72% 29.88 in 10.0 mi ESE 4.6 mph - N/A   Overcast
1:55 AM 79.5 °F - 69.8 °F 72% 29.89 in 10.0 mi East 5.8 mph - N/A   Overcast
2:15 AM 79.5 °F - 69.8 °F 72% 29.88 in 10.0 mi East 3.5 mph - N/A   Overcast
2:35 AM 79.3 °F - 70.2 °F 73% 29.87 in 10.0 mi East 5.8 mph - N/A   Overcast
2:55 AM 79.5 °F - 71.1 °F 75% 29.87 in 10.0 mi ESE 6.9 mph - N/A   Overcast
3:15 AM 79.7 °F - 71.6 °F 76% 29.87 in 10.0 mi ENE 5.8 mph - N/A   Overcast
3:35 AM 79.9 °F - 72.1 °F 77% 29.86 in 10.0 mi East 3.5 mph - N/A   Overcast
3:55 AM 79.9 °F - 72.5 °F 78% 29.85 in 10.0 mi East 3.5 mph - N/A   Overcast
4:15 AM 79.9 °F - 73.0 °F 80% 29.85 in 10.0 mi East 3.5 mph - N/A   Overcast
4:35 AM 79.7 °F - 73.4 °F 81% 29.85 in 10.0 mi East 4.6 mph - N/A   Mostly Cloudy
4:55 AM 79.9 °F - 73.6 °F 81% 29.85 in 10.0 mi ENE 4.6 mph - N/A   Overcast
5:35 AM 79.2 °F - 73.6 °F 83% 29.85 in 10.0 mi ENE 4.6 mph - N/A   Scattered Clouds
5:55 AM 78.8 °F - 73.6 °F 84% 29.85 in 10.0 mi ENE 3.5 mph - N/A   Clear
6:15 AM 78.8 °F - 74.1 °F 85% 29.85 in 10.0 mi East 4.6 mph - N/A   Clear
6:35 AM 78.8 °F - 74.3 °F 86% 29.86 in 10.0 mi East 4.6 mph - N/A   Clear
6:55 AM 78.8 °F - 74.3 °F 86% 29.86 in 10.0 mi Calm Calm - N/A   Scattered Clouds
7:15 AM 78.8 °F - 74.7 °F 87% 29.87 in 10.0 mi East 3.5 mph - N/A   Overcast
7:35 AM 78.8 °F - 74.5 °F 87% 29.88 in 10.0 mi East 3.5 mph - N/A   Mostly Cloudy
7:55 AM 79.2 °F - 74.5 °F 86% 29.88 in 10.0 mi East 3.5 mph - N/A   Mostly Cloudy
8:15 AM 80.6 °F 85.7 °F 74.3 °F 81% 29.89 in 10.0 mi East 4.6 mph - N/A   Scattered Clouds
8:35 AM 81.7 °F 87.3 °F 73.9 °F 77% 29.89 in 10.0 mi ESE 4.6 mph - N/A   Mostly Cloudy
8:55 AM 82.6 °F 88.8 °F 73.8 °F 75% 29.89 in 10.0 mi SE 4.6 mph - N/A Thunderstorm Mostly Cloudy
9:15 AM 83.1 °F 89.2 °F 73.4 °F 72% 29.89 in 10.0 mi SE 4.6 mph - N/A   Scattered Clouds
9:35 AM 83.1 °F 88.9 °F 72.7 °F 71% 29.90 in 10.0 mi ESE 3.5 mph - N/A   Scattered Clouds
9:55 AM 85.1 °F 91.5 °F 72.5 °F 66% 29.91 in 10.0 mi Calm Calm - N/A   Mostly Cloudy
10:15 AM 86.9 °F 92.9 °F 71.6 °F 60% 29.91 in 10.0 mi East 4.6 mph - N/A   Scattered Clouds
10:35 AM 87.8 °F 94.3 °F 72.0 °F 59% 29.91 in 10.0 mi ESE 4.6 mph - N/A   Mostly Cloudy
10:55 AM 87.8 °F 93.4 °F 70.9 °F 57% 29.91 in 10.0 mi Calm Calm - N/A   Mostly Cloudy
11:15 AM 90.1 °F 95.8 °F 70.3 °F 52% 29.90 in 10.0 mi ESE 6.9 mph - N/A   Scattered Clouds
11:35 AM 91.4 °F 96.8 °F 69.8 °F 49% 29.90 in 10.0 mi ESE 3.5 mph - N/A   Scattered Clouds
11:55 AM 91.9 °F 96.9 °F 68.9 °F 47% 29.89 in 10.0 mi NE 6.9 mph - N/A   Mostly Cloudy
12:15 PM 91.4 °F 96.3 °F 68.9 °F 48% 29.89 in 10.0 mi NE 3.5 mph - N/A   Mostly Cloudy
12:35 PM 91.8 °F 95.5 °F 67.8 °F 45% 29.89 in 10.0 mi NE 5.8 mph - N/A   Mostly Cloudy
12:55 PM 91.9 °F 95.4 °F 67.1 °F 44% 29.87 in 10.0 mi Calm Calm - N/A   Overcast
1:15 PM 93.7 °F 97.2 °F 66.7 °F 41% 29.87 in 10.0 mi SE 3.5 mph - N/A   Overcast
1:35 PM 95.4 °F 99.1 °F 67.1 °F 39% 29.87 in 10.0 mi SE 5.8 mph - N/A   Overcast
1:55 PM 94.1 °F 97.9 °F 67.1 °F 41% 29.86 in 10.0 mi East 8.1 mph - N/A   Overcast
2:15 PM 97.3 °F 101.1 °F 66.2 °F 36% 29.85 in 10.0 mi East 8.1 mph - N/A   Overcast
3:15 PM 98.6 °F 101.6 °F 64.8 °F 33% 29.82 in 10.0 mi East 6.9 mph - N/A   Overcast
3:35 PM 98.4 °F 100.7 °F 64.2 °F 32% 29.82 in 10.0 mi East 6.9 mph - N/A   Overcast
3:55 PM 97.2 °F 99.6 °F 64.4 °F 34% 29.81 in 10.0 mi East 6.9 mph - N/A   Overcast
4:15 PM 98.2 °F 100.4 °F 63.9 °F 32% 29.80 in 10.0 mi ENE 5.8 mph 18.4 mph N/A   Overcast
4:35 PM 98.2 °F 101.0 °F 64.6 °F 33% 29.80 in 10.0 mi East 11.5 mph - N/A   Overcast
4:55 PM 94.1 °F 98.9 °F 68.2 °F 43% 29.82 in 10.0 mi East 18.4 mph 24.2 mph N/A   Overcast
5:15 PM 94.6 °F 98.9 °F 67.3 °F 41% 29.82 in 10.0 mi East 19.6 mph 26.5 mph N/A Thunderstorm Overcast
5:35 PM 93.7 °F 97.2 °F 67.1 °F 41% 29.82 in 10.0 mi East 16.1 mph 24.2 mph N/A   Overcast
5:55 PM 91.9 °F 98.4 °F 70.7 °F 50% 29.82 in 10.0 mi ESE 23.0 mph 28.8 mph N/A   Overcast
6:15 PM 90.3 °F 96.2 °F 70.5 °F 52% 29.83 in 10.0 mi East 19.6 mph 26.5 mph N/A   Overcast
6:35 PM 88.7 °F 93.5 °F 69.6 °F 53% 29.85 in 10.0 mi ESE 16.1 mph 24.2 mph N/A   Overcast
6:55 PM 89.4 °F 93.5 °F 68.4 °F 50% 29.86 in 10.0 mi ESE 16.1 mph 20.7 mph N/A   Overcast
7:15 PM 87.3 °F 92.4 °F 70.2 °F 57% 29.85 in 10.0 mi ESE 17.3 mph 21.9 mph N/A   Overcast
7:35 PM 86.2 °F 91.4 °F 70.7 °F 60% 29.86 in 10.0 mi ESE 15.0 mph 19.6 mph N/A   Overcast
7:55 PM 84.4 °F 90.0 °F 71.8 °F 66% 29.85 in 10.0 mi East 13.8 mph 20.7 mph N/A   Overcast
8:15 PM 82.4 °F 86.7 °F 70.7 °F 68% 29.87 in 10.0 mi ESE 11.5 mph 19.6 mph N/A   Overcast
8:35 PM 82.0 °F 86.1 °F 70.3 °F 68% 29.89 in 10.0 mi ESE 13.8 mph 18.4 mph N/A   Mostly Cloudy
8:55 PM 81.5 °F 85.5 °F 70.7 °F 70% 29.89 in 10.0 mi ESE 10.4 mph - N/A   Clear
9:15 PM 81.5 °F 85.5 °F 70.9 °F 70% 29.90 in 10.0 mi ESE 9.2 mph - N/A   Clear
9:35 PM 81.1 °F 85.6 °F 72.1 °F 74% 29.91 in 10.0 mi SE 6.9 mph - N/A   Scattered Clouds
9:55 PM 81.0 °F 85.4 °F 72.5 °F 75% 29.91 in 10.0 mi ESE 9.2 mph - N/A   Mostly Cloudy
10:15 PM 80.8 °F 85.4 °F 72.9 °F 77% 29.92 in 10.0 mi SE 6.9 mph - N/A   Overcast
10:35 PM 80.8 °F 85.4 °F 73.0 °F 77% 29.92 in 10.0 mi SE 9.2 mph - N/A   Overcast
10:55 PM 80.6 °F 85.2 °F 73.0 °F 78% 29.92 in 10.0 mi ESE 8.1 mph - N/A   Mostly Cloudy
11:15 PM 80.8 °F 85.6 °F 73.2 °F 78% 29.93 in 10.0 mi ESE 8.1 mph - N/A   Mostly Cloudy
11:35 PM 80.8 °F 85.6 °F 73.2 °F 78% 29.93 in 10.0 mi SE 5.8 mph - N/A   Overcast
11:55 PM 80.6 °F 85.4 °F 73.4 °F 79% 29.93 in 10.0 mi ESE 6.9 mph - N/A   Mostly Cloudy